Location: Stuttgart
(48.8069°N, 9.1544°E)
Time: 10:22:22
(UTC+01:00)

ISS - Pass Details

Date: 15 November 2017
Orbit: 402 x 407 km, 51.6° (Epoch: 21 November)

Event Time Altitude Azimuth Distance (km) Brightness Sun altitude
Exits shadow 04:55:36 25° 112° (ESE) 846 -1.6 -25.7°
Drops below altitude 10° 04:57:07 10° 112° (ESE) 1,453 -0.2 -25.4°
Sets 04:59:11 0° 112° (ESE) 2,310 1.1 -25.1°
